SAS723 EFHK-EYPA

Flight info

Callsign SAS723
Flight time 1h 15m
Altitude 20000
Route KOIVU Y123 LARTI DCT NAVOT DCT ORTAX DCT LUTAL DCT ASKOR DCT XARIN
Aircraft AT76/M-SDFGIRY/S

Departure

Time 2026-04-24 11:39
Airport Helsinki Vantaa Airport (EFHK)

Arrival

Time 2026-04-24 12:54
Airport Palanga International Airport (EYPA)
Time Latitude Longitude Altitude Speed Heading
2026-04-24 11:21 60.31478 24.97395 158 ft 0 kts 242°
2026-04-24 11:32 60.31482 24.97410 158 ft 2 kts 241°
2026-04-24 11:32 60.31489 24.97440 158 ft 2 kts 243°
2026-04-24 11:32 60.31497 24.97469 158 ft 2 kts 243°
2026-04-24 11:33 60.31507 24.97494 158 ft 2 kts 202°
2026-04-24 11:33 60.31523 24.97501 158 ft 2 kts 177°
2026-04-24 11:33 60.31539 24.97492 158 ft 2 kts 151°
2026-04-24 11:33 60.31549 24.97481 158 ft 1 kts 152°
2026-04-24 11:34 60.31549 24.97480 158 ft 0 kts 152°
2026-04-24 11:35 60.31534 24.97505 158 ft 5 kts 136°
2026-04-24 11:35 60.31533 24.97600 157 ft 8 kts 65°
2026-04-24 11:35 60.31491 24.97696 157 ft 13 kts 156°
2026-04-24 11:35 60.31464 24.97720 157 ft 0 kts 156°
2026-04-24 11:36 60.31431 24.97751 157 ft 9 kts 152°
2026-04-24 11:36 60.31404 24.97835 157 ft 1 kts 81°
2026-04-24 11:36 60.31408 24.97850 157 ft 4 kts 58°
2026-04-24 11:36 60.31432 24.97931 154 ft 10 kts 56°
2026-04-24 11:37 60.31494 24.98004 149 ft 4 kts 333°
2026-04-24 11:37 60.31498 24.98002 149 ft 0 kts 343°
2026-04-24 11:37 60.31525 24.97989 149 ft 8 kts 342°
2026-04-24 11:38 60.31560 24.97956 149 ft 1 kts 333°
2026-04-24 11:38 60.31568 24.97948 149 ft 11 kts 332°
2026-04-24 11:38 60.31843 24.97668 149 ft 75 kts 333°
2026-04-24 11:38 60.32464 24.97017 182 ft 120 kts 335°
2026-04-24 11:39 60.33225 24.96291 755 ft 118 kts 335°
2026-04-24 11:39 60.33936 24.95449 1333 ft 129 kts 323°
2026-04-24 11:39 60.34402 24.93716 1722 ft 159 kts 291°
2026-04-24 11:39 60.34413 24.91199 1858 ft 197 kts 266°
2026-04-24 11:40 60.33988 24.88601 2533 ft 190 kts 257°
2026-04-24 11:40 60.33481 24.86257 3251 ft 178 kts 246°
2026-04-24 11:40 60.32838 24.84181 3917 ft 171 kts 247°
2026-04-24 11:40 60.32247 24.82136 4510 ft 167 kts 249°
2026-04-24 11:41 60.31705 24.80093 5070 ft 164 kts 253°
2026-04-24 11:41 60.31258 24.78026 5589 ft 161 kts 258°
2026-04-24 11:41 60.30882 24.75907 6108 ft 159 kts 262°
2026-04-24 11:41 60.30562 24.73712 6362 ft 171 kts 266°
2026-04-24 11:42 60.30279 24.71275 6590 ft 182 kts 268°
2026-04-24 11:42 60.30005 24.68769 6963 ft 183 kts 265°
2026-04-24 11:42 60.29274 24.66566 7251 ft 204 kts 222°
2026-04-24 11:42 60.27953 24.65370 7605 ft 212 kts 204°
2026-04-24 11:43 60.26504 24.64665 7987 ft 215 kts 197°
2026-04-24 11:43 60.25020 24.64148 8412 ft 217 kts 195°
2026-04-24 11:43 60.23518 24.63678 8805 ft 219 kts 195°
2026-04-24 11:43 60.22027 24.63153 9193 ft 221 kts 197°
2026-04-24 11:44 60.20510 24.62587 9580 ft 223 kts 197°
2026-04-24 11:44 60.18975 24.62002 9923 ft 225 kts 197°
2026-04-24 11:44 60.17432 24.61410 10255 ft 226 kts 198°
2026-04-24 11:44 60.15881 24.60814 10603 ft 228 kts 198°
2026-04-24 11:45 60.14323 24.60214 10938 ft 229 kts 198°
2026-04-24 11:45 60.12751 24.59642 11240 ft 230 kts 195°
2026-04-24 11:45 60.11175 24.59080 11511 ft 231 kts 196°
2026-04-24 11:45 60.09594 24.58458 11779 ft 232 kts 197°
2026-04-24 11:46 60.08002 24.57817 12044 ft 234 kts 197°
2026-04-24 11:46 60.06369 24.57440 12315 ft 240 kts 180°
2026-04-24 11:46 60.04708 24.57973 12535 ft 244 kts 169°
2026-04-24 11:46 60.03048 24.58785 12772 ft 246 kts 167°
2026-04-24 11:47 60.01402 24.59620 13010 ft 248 kts 168°
2026-04-24 11:47 59.99716 24.60419 13237 ft 249 kts 170°
2026-04-24 11:47 59.98017 24.61125 13479 ft 250 kts 172°
2026-04-24 11:47 59.96302 24.61788 13704 ft 252 kts 172°
2026-04-24 11:48 59.94580 24.62469 13898 ft 253 kts 172°
2026-04-24 11:48 59.93433 24.62925 14037 ft 254 kts 171°
2026-04-24 11:48 59.91696 24.63620 14234 ft 255 kts 172°
2026-04-24 11:48 59.89948 24.64321 14431 ft 256 kts 172°
2026-04-24 11:49 59.88191 24.65025 14622 ft 258 kts 172°
2026-04-24 11:49 59.86431 24.65728 14809 ft 259 kts 172°
2026-04-24 11:49 59.84682 24.66333 14944 ft 256 kts 184°
2026-04-24 11:49 59.82937 24.65958 15111 ft 251 kts 199°
2026-04-24 11:50 59.81248 24.65131 15308 ft 249 kts 204°
2026-04-24 11:50 59.79573 24.64204 15509 ft 250 kts 204°
2026-04-24 11:50 59.77892 24.63296 15685 ft 252 kts 203°
2026-04-24 11:50 59.76185 24.62438 15878 ft 253 kts 202°
2026-04-24 11:51 59.74466 24.61608 16058 ft 254 kts 202°
2026-04-24 11:51 59.72741 24.60783 16229 ft 255 kts 202°
2026-04-24 11:51 59.71009 24.59965 16395 ft 256 kts 201°
2026-04-24 11:51 59.69269 24.59163 16558 ft 257 kts 201°
2026-04-24 11:52 59.67520 24.58345 16702 ft 258 kts 202°
2026-04-24 11:52 59.65780 24.57477 16874 ft 258 kts 202°
2026-04-24 11:52 59.64055 24.56628 17019 ft 259 kts 202°
2026-04-24 11:52 59.62298 24.55762 17160 ft 260 kts 203°
2026-04-24 11:53 59.60546 24.54862 17324 ft 261 kts 203°
2026-04-24 11:53 59.58785 24.53948 17496 ft 261 kts 203°
2026-04-24 11:53 59.57025 24.53035 17663 ft 262 kts 203°
2026-04-24 11:53 59.55253 24.52114 17809 ft 263 kts 204°
2026-04-24 11:54 59.53477 24.51194 17963 ft 264 kts 204°
2026-04-24 11:54 59.51696 24.50272 18107 ft 265 kts 204°
2026-04-24 11:54 59.49910 24.49349 18240 ft 265 kts 203°
2026-04-24 11:54 59.48121 24.48427 18369 ft 266 kts 203°
2026-04-24 11:55 59.46327 24.47499 18482 ft 266 kts 204°
2026-04-24 11:55 59.44537 24.46577 18608 ft 267 kts 204°
2026-04-24 11:55 59.42742 24.45654 18732 ft 267 kts 203°
2026-04-24 11:55 59.40942 24.44730 18844 ft 267 kts 203°
2026-04-24 11:56 59.39147 24.43805 18958 ft 267 kts 204°
2026-04-24 11:56 59.37366 24.42885 19072 ft 268 kts 204°
2026-04-24 11:56 59.35541 24.41950 19180 ft 268 kts 204°
2026-04-24 11:56 59.33752 24.41060 19286 ft 271 kts 199°
2026-04-24 11:57 59.31870 24.40559 19385 ft 275 kts 192°
2026-04-24 11:57 59.29956 24.40296 19509 ft 276 kts 190°
2026-04-24 11:57 59.28034 24.40063 19639 ft 277 kts 190°
2026-04-24 11:57 59.26114 24.39802 19761 ft 276 kts 191°
2026-04-24 11:58 59.24205 24.39470 19901 ft 275 kts 193°
2026-04-24 11:58 59.22286 24.39101 19968 ft 278 kts 192°
2026-04-24 11:58 59.20343 24.38733 20008 ft 282 kts 192°
2026-04-24 11:58 59.18372 24.38367 20016 ft 287 kts 192°
2026-04-24 11:59 59.16372 24.38000 20020 ft 290 kts 192°
2026-04-24 11:59 59.14349 24.37632 20020 ft 293 kts 192°
2026-04-24 11:59 59.12304 24.37260 20024 ft 296 kts 192°
2026-04-24 11:59 59.10247 24.36883 20025 ft 299 kts 192°
2026-04-24 12:00 59.08167 24.36500 20026 ft 300 kts 192°
2026-04-24 12:00 59.06078 24.36116 20025 ft 302 kts 192°
2026-04-24 12:00 59.03984 24.35730 20027 ft 303 kts 192°
2026-04-24 12:00 59.01885 24.35345 20027 ft 304 kts 192°
2026-04-24 12:01 58.99772 24.34956 20022 ft 305 kts 192°
2026-04-24 12:01 58.97683 24.34572 20025 ft 305 kts 192°
2026-04-24 12:01 58.95563 24.34181 20027 ft 306 kts 191°
2026-04-24 12:01 58.93434 24.33790 19961 ft 309 kts 191°
2026-04-24 12:02 58.91278 24.33392 19886 ft 313 kts 191°
2026-04-24 12:02 58.89109 24.32997 19844 ft 314 kts 191°
2026-04-24 12:02 58.86928 24.32605 19827 ft 314 kts 191°
2026-04-24 12:02 58.84758 24.32179 19815 ft 311 kts 194°
2026-04-24 12:03 58.82649 24.31385 19813 ft 308 kts 201°
2026-04-24 12:03 58.80577 24.30354 19810 ft 307 kts 202°
2026-04-24 12:03 58.78537 24.29327 19809 ft 307 kts 201°
2026-04-24 12:03 58.76457 24.28357 19809 ft 308 kts 200°
2026-04-24 12:04 58.74373 24.27455 19812 ft 307 kts 200°
2026-04-24 12:04 58.72284 24.26545 19812 ft 307 kts 200°
2026-04-24 12:04 58.70201 24.25630 19809 ft 307 kts 200°
2026-04-24 12:04 58.68122 24.24708 19809 ft 306 kts 200°
2026-04-24 12:05 58.66047 24.23799 19804 ft 306 kts 200°
2026-04-24 12:05 58.63968 24.22890 19807 ft 306 kts 200°
2026-04-24 12:05 58.61887 24.21982 19812 ft 306 kts 200°
2026-04-24 12:05 58.59807 24.21077 19808 ft 307 kts 200°
2026-04-24 12:06 58.57722 24.20172 19806 ft 307 kts 199°
2026-04-24 12:06 58.55641 24.19270 19806 ft 307 kts 200°
2026-04-24 12:06 58.53551 24.18362 19804 ft 308 kts 200°
2026-04-24 12:06 58.51492 24.17470 19802 ft 308 kts 200°
2026-04-24 12:07 58.49401 24.16567 19803 ft 307 kts 200°
2026-04-24 12:07 58.47313 24.15667 19802 ft 307 kts 200°
2026-04-24 12:07 58.45230 24.14767 19800 ft 307 kts 200°
2026-04-24 12:07 58.43150 24.13872 19804 ft 306 kts 199°
2026-04-24 12:08 58.41071 24.12977 19804 ft 306 kts 199°
2026-04-24 12:08 58.38991 24.12083 19808 ft 306 kts 199°
2026-04-24 12:08 58.36916 24.11195 19808 ft 306 kts 199°
2026-04-24 12:08 58.34839 24.10304 19806 ft 305 kts 199°
2026-04-24 12:09 58.32761 24.09414 19810 ft 305 kts 199°
2026-04-24 12:09 58.30712 24.08536 19812 ft 305 kts 199°
2026-04-24 12:09 58.28641 24.07651 19820 ft 305 kts 199°
2026-04-24 12:09 58.26568 24.06768 19811 ft 306 kts 199°
2026-04-24 12:10 58.24487 24.05886 19816 ft 305 kts 199°
2026-04-24 12:10 58.22411 24.04998 19819 ft 305 kts 199°
2026-04-24 12:10 58.20337 24.04120 19821 ft 305 kts 199°
2026-04-24 12:11 58.16193 24.02357 19828 ft 305 kts 199°
2026-04-24 12:11 58.14123 24.01483 19829 ft 305 kts 199°
2026-04-24 12:11 58.12049 24.00603 19832 ft 305 kts 199°
2026-04-24 12:11 58.09977 23.99729 19833 ft 305 kts 199°
2026-04-24 12:12 58.07931 23.98864 19830 ft 305 kts 199°
2026-04-24 12:12 58.05854 23.97990 19836 ft 305 kts 199°
2026-04-24 12:12 58.03785 23.97118 19833 ft 305 kts 199°
2026-04-24 12:12 58.01719 23.96248 19836 ft 305 kts 199°
2026-04-24 12:13 57.99649 23.95379 19838 ft 305 kts 199°
2026-04-24 12:13 57.97579 23.94511 19840 ft 305 kts 199°
2026-04-24 12:13 57.95507 23.93642 19842 ft 305 kts 199°
2026-04-24 12:13 57.93437 23.92776 19840 ft 305 kts 199°
2026-04-24 12:14 57.91371 23.91898 19842 ft 304 kts 199°
2026-04-24 12:14 57.89344 23.90877 19839 ft 299 kts 207°
2026-04-24 12:14 57.87435 23.89385 19843 ft 295 kts 214°
2026-04-24 12:14 57.85608 23.87647 19844 ft 294 kts 216°
2026-04-24 12:15 57.83791 23.85879 19845 ft 294 kts 216°
2026-04-24 12:15 57.81951 23.84155 19843 ft 295 kts 214°
2026-04-24 12:15 57.80120 23.82523 19844 ft 296 kts 214°
2026-04-24 12:15 57.78261 23.80866 19846 ft 295 kts 214°
2026-04-24 12:16 57.76402 23.79197 19846 ft 295 kts 214°
2026-04-24 12:16 57.74545 23.77538 19845 ft 296 kts 214°
2026-04-24 12:16 57.72685 23.75883 19846 ft 295 kts 214°
2026-04-24 12:16 57.70827 23.74231 19846 ft 295 kts 214°
2026-04-24 12:17 57.68966 23.72580 19845 ft 295 kts 214°
2026-04-24 12:17 57.67132 23.70955 19846 ft 296 kts 213°
2026-04-24 12:17 57.65274 23.69312 19849 ft 295 kts 214°
2026-04-24 12:17 57.63418 23.67668 19849 ft 295 kts 213°
2026-04-24 12:18 57.61561 23.66029 19849 ft 295 kts 213°
2026-04-24 12:18 57.59701 23.64387 19847 ft 295 kts 213°
2026-04-24 12:18 57.57837 23.62747 19848 ft 295 kts 213°
2026-04-24 12:18 57.55981 23.61111 19851 ft 295 kts 213°
2026-04-24 12:19 57.54124 23.59481 19853 ft 295 kts 213°
2026-04-24 12:19 57.52263 23.57846 19851 ft 295 kts 213°
2026-04-24 12:19 57.50406 23.56217 19854 ft 295 kts 213°
2026-04-24 12:19 57.48546 23.54588 19854 ft 295 kts 213°
2026-04-24 12:20 57.46689 23.52961 19856 ft 295 kts 213°
2026-04-24 12:20 57.44831 23.51337 19852 ft 295 kts 213°
2026-04-24 12:20 57.42994 23.49734 19856 ft 295 kts 213°
2026-04-24 12:20 57.41133 23.48111 19852 ft 295 kts 213°
2026-04-24 12:21 57.39273 23.46488 19859 ft 295 kts 213°
2026-04-24 12:21 57.37417 23.44873 19856 ft 295 kts 213°
2026-04-24 12:21 57.35563 23.43261 19856 ft 295 kts 213°
2026-04-24 12:21 57.33706 23.41648 19857 ft 295 kts 213°
2026-04-24 12:22 57.31846 23.40035 19861 ft 294 kts 213°
2026-04-24 12:22 57.29990 23.38427 19863 ft 294 kts 213°
2026-04-24 12:22 57.28153 23.36784 19859 ft 287 kts 220°
2026-04-24 12:22 57.26687 23.34463 19862 ft 275 kts 235°
2026-04-24 12:23 57.25321 23.31977 19862 ft 277 kts 233°
2026-04-24 12:23 57.23849 23.29616 19860 ft 282 kts 227°
2026-04-24 12:23 57.22284 23.27481 19861 ft 284 kts 224°
2026-04-24 12:23 57.20654 23.25397 19866 ft 285 kts 224°
2026-04-24 12:24 57.19025 23.23316 19861 ft 285 kts 224°
2026-04-24 12:24 57.17407 23.21222 19864 ft 284 kts 224°
2026-04-24 12:24 57.15795 23.19105 19864 ft 284 kts 225°
2026-04-24 12:24 57.14192 23.16975 19867 ft 284 kts 225°
2026-04-24 12:25 57.12588 23.14838 19868 ft 284 kts 225°
2026-04-24 12:25 57.10982 23.12709 19869 ft 285 kts 225°
2026-04-24 12:25 57.09372 23.10585 19863 ft 285 kts 224°
2026-04-24 12:25 57.07760 23.08465 19867 ft 285 kts 224°
2026-04-24 12:26 57.06168 23.06374 19865 ft 285 kts 224°
2026-04-24 12:26 57.04554 23.04255 19863 ft 285 kts 224°
2026-04-24 12:26 57.02941 23.02135 19866 ft 285 kts 224°
2026-04-24 12:26 57.01329 23.00020 19863 ft 285 kts 224°
2026-04-24 12:27 56.99715 22.97907 19863 ft 285 kts 224°
2026-04-24 12:27 56.98098 22.95789 19865 ft 284 kts 224°
2026-04-24 12:27 56.96487 22.93682 19865 ft 284 kts 224°
2026-04-24 12:27 56.94895 22.91605 19870 ft 284 kts 224°
2026-04-24 12:28 56.93285 22.89503 19869 ft 284 kts 224°
2026-04-24 12:28 56.91674 22.87404 19863 ft 284 kts 224°
2026-04-24 12:28 56.90065 22.85309 19872 ft 284 kts 224°
2026-04-24 12:28 56.88453 22.83213 19874 ft 284 kts 224°
2026-04-24 12:29 56.86839 22.81117 19870 ft 284 kts 224°
2026-04-24 12:29 56.85230 22.79028 19869 ft 284 kts 224°
2026-04-24 12:29 56.83621 22.76942 19868 ft 284 kts 224°
2026-04-24 12:29 56.82012 22.74858 19865 ft 283 kts 224°
2026-04-24 12:30 56.80402 22.72776 19869 ft 283 kts 224°
2026-04-24 12:30 56.78789 22.70693 19870 ft 283 kts 224°
2026-04-24 12:30 56.77180 22.68616 19873 ft 283 kts 224°
2026-04-24 12:30 56.75576 22.66548 19880 ft 282 kts 224°
2026-04-24 12:31 56.74071 22.64331 19872 ft 274 kts 233°
2026-04-24 12:31 56.72752 22.61886 19872 ft 273 kts 236°
2026-04-24 12:31 56.71429 22.59395 19880 ft 274 kts 234°
2026-04-24 12:31 56.70060 22.56975 19880 ft 275 kts 232°
2026-04-24 12:32 56.68647 22.54614 19877 ft 276 kts 231°
2026-04-24 12:32 56.67233 22.52256 19876 ft 276 kts 232°
2026-04-24 12:32 56.65826 22.49892 19882 ft 275 kts 232°
2026-04-24 12:32 56.64420 22.47523 19882 ft 275 kts 232°
2026-04-24 12:33 56.63014 22.45158 19880 ft 275 kts 232°
2026-04-24 12:33 56.61608 22.42800 19886 ft 275 kts 232°
2026-04-24 12:33 56.60198 22.40435 19888 ft 275 kts 231°
2026-04-24 12:33 56.58789 22.38083 19885 ft 275 kts 231°
2026-04-24 12:34 56.57381 22.35727 19888 ft 275 kts 231°
2026-04-24 12:34 56.55989 22.33408 19882 ft 275 kts 231°
2026-04-24 12:34 56.54584 22.31063 19887 ft 275 kts 231°
2026-04-24 12:34 56.53174 22.28717 19887 ft 275 kts 231°
2026-04-24 12:35 56.51769 22.26378 19890 ft 275 kts 231°
2026-04-24 12:35 56.50361 22.24038 19887 ft 275 kts 231°
2026-04-24 12:35 56.48951 22.21699 19890 ft 275 kts 231°
2026-04-24 12:35 56.47544 22.19363 19889 ft 275 kts 231°
2026-04-24 12:36 56.46134 22.17030 19892 ft 274 kts 231°
2026-04-24 12:36 56.44725 22.14699 19893 ft 275 kts 231°
2026-04-24 12:36 56.43318 22.12371 19893 ft 275 kts 231°
2026-04-24 12:36 56.42383 22.10826 19891 ft 275 kts 231°
2026-04-24 12:37 56.40972 22.08500 19886 ft 275 kts 231°
2026-04-24 12:37 56.39555 22.06164 19887 ft 276 kts 231°
2026-04-24 12:37 56.38133 22.03824 19886 ft 276 kts 230°
2026-04-24 12:37 56.36245 22.00720 19880 ft 277 kts 230°
2026-04-24 12:38 56.35281 21.99135 19877 ft 277 kts 231°
2026-04-24 12:38 56.33872 21.96821 19880 ft 278 kts 230°
2026-04-24 12:38 56.32439 21.94475 19874 ft 278 kts 230°
2026-04-24 12:39 56.27845 21.86960 18729 ft 313 kts 229°
2026-04-24 12:39 56.26212 21.84299 18319 ft 320 kts 229°
2026-04-24 12:39 56.24547 21.81587 17871 ft 326 kts 229°
2026-04-24 12:40 56.22862 21.78841 17402 ft 325 kts 229°
2026-04-24 12:40 56.21195 21.76133 16935 ft 322 kts 229°
2026-04-24 12:40 56.19540 21.73444 16483 ft 319 kts 229°
2026-04-24 12:40 56.17898 21.70779 16047 ft 317 kts 229°
2026-04-24 12:41 56.16265 21.68133 15619 ft 315 kts 229°
2026-04-24 12:41 56.14640 21.65501 15192 ft 313 kts 228°
2026-04-24 12:41 56.13024 21.62893 14781 ft 312 kts 228°
2026-04-24 12:41 56.11435 21.60326 14386 ft 311 kts 228°
2026-04-24 12:42 56.09828 21.57733 13995 ft 310 kts 228°
2026-04-24 12:42 56.09286 21.56857 13860 ft 310 kts 228°
2026-04-24 12:42 56.08891 21.56220 13756 ft 310 kts 228°
2026-04-24 12:42 56.07251 21.53581 13309 ft 309 kts 228°
2026-04-24 12:43 56.05649 21.51005 12874 ft 308 kts 227°
2026-04-24 12:43 56.04060 21.48453 12445 ft 307 kts 227°
2026-04-24 12:43 56.02469 21.45901 12018 ft 306 kts 227°
2026-04-24 12:43 56.00738 21.43782 11605 ft 309 kts 208°
2026-04-24 12:44 55.98675 21.42650 11191 ft 312 kts 196°
2026-04-24 12:44 55.96543 21.41908 10786 ft 312 kts 193°
2026-04-24 12:44 55.94417 21.41217 10477 ft 308 kts 193°
2026-04-24 12:44 55.92328 21.40480 10231 ft 303 kts 195°
2026-04-24 12:45 55.90285 21.39662 9983 ft 299 kts 196°
2026-04-24 12:45 55.88265 21.38836 9739 ft 297 kts 195°
2026-04-24 12:45 55.86259 21.38040 9477 ft 295 kts 195°
2026-04-24 12:45 55.84266 21.37251 9218 ft 292 kts 195°
2026-04-24 12:46 55.82288 21.36466 8955 ft 290 kts 196°
2026-04-24 12:46 55.80345 21.35692 8637 ft 290 kts 196°
2026-04-24 12:46 55.78341 21.34896 8166 ft 291 kts 196°
2026-04-24 12:46 55.76440 21.33945 7677 ft 283 kts 210°
2026-04-24 12:47 55.74999 21.31723 7232 ft 270 kts 241°
2026-04-24 12:47 55.74454 21.28665 6817 ft 256 kts 272°
2026-04-24 12:47 55.74879 21.25696 6453 ft 245 kts 296°
2026-04-24 12:47 55.75570 21.22923 6070 ft 245 kts 294°
2026-04-24 12:48 55.76145 21.20078 5673 ft 245 kts 289°
2026-04-24 12:48 55.76667 21.17283 5279 ft 238 kts 297°
2026-04-24 12:48 55.77500 21.14752 4918 ft 236 kts 304°
2026-04-24 12:48 55.78392 21.12300 4537 ft 237 kts 304°
2026-04-24 12:49 55.79271 21.09830 4179 ft 233 kts 303°
2026-04-24 12:49 55.80097 21.07388 3837 ft 228 kts 302°
2026-04-24 12:49 55.80944 21.05129 3463 ft 215 kts 318°
2026-04-24 12:49 55.82220 21.04137 3115 ft 191 kts 352°
2026-04-24 12:50 55.83502 21.04056 2786 ft 178 kts
2026-04-24 12:50 55.84705 21.04269 2499 ft 169 kts
2026-04-24 12:50 55.85833 21.04651 2235 ft 158 kts 10°
2026-04-24 12:50 55.86861 21.05080 1986 ft 149 kts 11°
2026-04-24 12:51 55.87840 21.05504 1874 ft 140 kts 11°
2026-04-24 12:51 55.88774 21.05908 1674 ft 134 kts 10°
2026-04-24 12:51 55.89620 21.06281 1539 ft 120 kts 10°
2026-04-24 12:51 55.90410 21.06594 1335 ft 112 kts 10°
2026-04-24 12:52 55.91154 21.06909 1208 ft 111 kts 11°
2026-04-24 12:52 55.91908 21.07231 1044 ft 112 kts
2026-04-24 12:52 55.92671 21.07538 846 ft 113 kts
2026-04-24 12:52 55.93443 21.07843 614 ft 111 kts
2026-04-24 12:53 55.94171 21.08122 443 ft 104 kts
2026-04-24 12:53 55.94854 21.08403 329 ft 105 kts 10°
2026-04-24 12:53 55.95614 21.08704 216 ft 116 kts
2026-04-24 12:53 55.96401 21.09020 74 ft 115 kts
2026-04-24 12:54 55.97119 21.09304 37 ft 83 kts 14°
2026-04-24 12:54 55.97510 21.09463 38 ft 49 kts 12°
2026-04-24 12:54 55.97691 21.09536 38 ft 16 kts 13°
2026-04-24 12:54 55.97778 21.09574 38 ft 11 kts 17°
2026-04-24 12:55 55.97844 21.09600 38 ft 8 kts 10°
2026-04-24 12:55 55.97921 21.09627 39 ft 17 kts 11°
2026-04-24 12:55 55.98035 21.09674 38 ft 20 kts 16°
2026-04-24 12:55 55.98124 21.09704 37 ft 7 kts 295°
2026-04-24 12:56 55.98095 21.09678 38 ft 12 kts 180°
2026-04-24 12:56 55.97976 21.09648 39 ft 21 kts 192°
2026-04-24 12:56 55.97830 21.09594 38 ft 21 kts 193°
2026-04-24 12:56 55.97652 21.09519 38 ft 30 kts 193°
2026-04-24 12:57 55.97454 21.09435 38 ft 27 kts 193°
2026-04-24 12:57 55.97287 21.09373 39 ft 22 kts 192°
2026-04-24 12:57 55.97146 21.09320 37 ft 19 kts 176°
2026-04-24 12:57 55.97094 21.09464 37 ft 9 kts 104°
2026-04-24 12:58 55.97047 21.09554 37 ft 11 kts 133°
2026-04-24 12:58 55.97030 21.09635 37 ft 5 kts 107°
2026-04-24 12:58 55.97030 21.09656 37 ft 1 kts 62°
2026-04-24 12:58 55.97034 21.09653 37 ft 1 kts 356°
2026-04-24 12:59 55.97035 21.09646 37 ft 0 kts 296°
2026-04-24 12:59 55.97035 21.09642 37 ft 0 kts 288°